Printer-friendly version

IAU Minor Planet Center

Minor Planet Center

MPEC 2007-V36 : 2007 VV7

The following Minor Planet Electronic Circular may be linked-to from your own Web pages, but must not otherwise be redistributed electronically.


Read MPEC 2007-V35 Read MPEC 2007-V37


M.P.E.C. 2007-V36                                Issued 2007 Nov. 5, 19:52 UT

     The Minor Planet Electronic Circulars contain information on unusual
         minor planets and routine data on comets.  They are published
   on behalf of Commission 20 of the International Astronomical Union by the
          Minor Planet Center, Smithsonian Astrophysical Observatory,
                          Cambridge, MA 02138, U.S.A.

             Prepared using the Tamkin Foundation Computer Network

                              MPC@CFA.HARVARD.EDU
          URL http://www.cfa.harvard.edu/iau/mpc.html  ISSN 1523-6714

                                   2007 VV7

Observations:
     K07V07V* C2007 11 04.23366 02 33 22.68 +29 07 11.7          21.1 V EV036G96
     K07V07V  C2007 11 04.23941 02 33 26.78 +29 07 09.3          20.9 V EV036G96
     K07V07V  C2007 11 04.24512 02 33 30.85 +29 07 06.2          21.1 V EV036G96
     K07V07V  C2007 11 04.25082 02 33 34.95 +29 07 03.1          21.2 V EV036G96
     K07V07V  C2007 11 04.29133 02 34 03.64 +29 06 39.7          21.0 V EV036G96
     K07V07V  C2007 11 04.29198 02 34 04.04 +29 06 39.3          20.9 V EV036G96
     K07V07V  C2007 11 04.29263 02 34 04.51 +29 06 38.7          21.0 V EV036G96
     K07V07V  C2007 11 04.29328 02 34 04.98 +29 06 38.2          21.0 V EV036G96
     K07V07V  C2007 11 04.33303 02 34 32.95 +29 06 09.8          21.0 V EV036G96
     K07V07V  C2007 11 04.33358 02 34 33.34 +29 06 09.4          21.2 V EV036G96
     K07V07V  C2007 11 04.33411 02 34 33.70 +29 06 09.0          21.0 V EV036G96
     K07V07V  C2007 11 04.33464 02 34 34.10 +29 06 08.5          21.1 V EV036G96
     K07V07V  C2007 11 05.31306 02 46 22.47 +28 53 40.7          21.7 V EV036G96
     K07V07V  C2007 11 05.31359 02 46 22.80 +28 53 40.3          21.2 V EV036G96
     K07V07V  C2007 11 05.31412 02 46 23.12 +28 53 39.8          21.2 V EV036G96
     K07V07V  C2007 11 05.31465 02 46 23.41 +28 53 39.3          21.0 V EV036G96

Observer details:
G96 Mt. Lemmon Survey.  Observers A. Boattini, A. R. Gibbs.  Measurers
    E. C. Beshore, A. Boattini, G. J. Garradd, A. R. Gibbs, A. D. Grauer,
    R. E. Hill, R. A. Kowalski, S. M. Larson, R. H. McNaught.  1.5-m reflector
    + CCD.

Orbital elements:
2007 VV7                                                 Earth MOID = 0.0136 AU
Epoch 2007 Oct. 27.0 TT = JDT 2454400.5                 MPC
M   7.17246              (2000.0)            P               Q
n   0.41312287     Peri.   98.55528     +0.97819762     -0.20720977
a   1.7854590      Node   273.40445     +0.18463756     +0.89839216
e   0.4407219      Incl.    0.79849     +0.09507042     +0.38724106
P   2.39           H   26.7           G   0.15           U   9
Residuals in seconds of arc
071104 G96  0.1+  0.2-    071104 G96  0.2-  0.0     071105 G96  0.0   0.0
071104 G96  0.1-  0.1+    071104 G96  0.0   0.1-    071105 G96  0.1+  0.0
071104 G96  0.2-  0.1-    071104 G96  0.0   0.0     071105 G96  0.1+  0.0
071104 G96  0.3+  0.2-    071104 G96  0.0   0.1+    071105 G96  0.3-  0.0
071104 G96  0.4+  0.2+    071104 G96  0.1-  0.1+
071104 G96  0.4-  0.2+    071104 G96  0.2+  0.0

Ephemeris:
2007 VV7                 a,e,i = 1.79, 0.44, 1                   q = 0.9986
Date    TT    R. A. (2000) Decl.     Delta      r     Elong.  Phase     V
2007 11 06    02 53.75   +28 43.7    0.0555   1.046   166.8    12.5    21.3
2007 11 07    03 03.34   +28 27.6    0.0591   1.049   167.0    12.3    21.4
2007 11 08    03 11.74   +28 10.8    0.0628   1.052   167.2    12.0    21.5
2007 11 09    03 19.13   +27 53.7    0.0667   1.056   167.4    11.8    21.7
2007 11 10    03 25.66   +27 36.7    0.0706   1.059   167.6    11.6    21.8
2007 11 11    03 31.44   +27 20.2    0.0745   1.063   167.9    11.3    21.9
2007 11 12    03 36.59   +27 04.1    0.0786   1.067   168.2    10.9    22.0
2007 11 13    03 41.18   +26 48.6    0.0827   1.071   168.5    10.6    22.1
2007 11 14    03 45.29   +26 33.7    0.0869   1.075   168.9    10.2    22.2
2007 11 15    03 48.98   +26 19.5    0.0912   1.079   169.4     9.7    22.3
2007 11 16    03 52.31   +26 05.9    0.0955   1.083   169.9     9.3    22.4

Timothy B. Spahr             (C) Copyright 2007 MPC           M.P.E.C. 2007-V36

Read MPEC 2007-V35 Read MPEC 2007-V37


Our Web policy. Index to the CBAT/MPC/ICQ pages.


Valid HTML 4.01!